Location: Basse Occidentale du Courleau
(48.3833°N, 4.8333°W)
Time: 09:43:17
(UTC+00:00)

GEOS 3 Rocket - Pass Details

Date: 05 July 2020
Orbit: 771 x 848 km, 115.0° (Epoch: 07 August)

Event Time Altitude Azimuth Distance (km) Brightness Sun altitude
Rises 20:57:10 0° 44° (NE) 3,413 6.9 -5.2°
Reaches altitude 10° 20:59:38 10° 52° (NE) 2,477 6.1 -5.5°
Maximum altitude 21:04:45 42° 122° (ESE) 1,199 4.1 -6.1°
Drops below altitude 10° 21:09:49 10° 193° (SSW) 2,460 5.8 -6.7°
Sets 21:12:15 0° 200° (SSW) 3,386 6.6 -7.0°
